Temp_Advection
nan nan nan nan nan nan nan nan nan nan nan nan nan nan nan nan nan nan nan nan nan nan nan nan nan nan nan nan nan nan nan nan nan nan nan nan nan nan nan nan nan nan nan nan nan nan nan
nan -0 -0 -0 -0 -0 -0 -0 -0 -0 -0 -0 -0 0 0 0 0 0 0 0 0 0 0 0 0 0 0 -0 -0 0 0 0 0 0 -0 0 0 0 0 -0 -0 -0 -0 -1 -1 -0 nan
nan -0 -0 -0 -0 -0 -0 -0 -0 -0 -0 -0 -0 0 0 0 0 0 0 0 0 0 0 0 0 0 -0 -0 0 0 0 0 0 -0 -0 -0 0 0 0 -0 -0 0 0 -0 -0 -0 nan
nan -0 -0 -0 -0 -0 -0 -0 -0 -0 -0 0 0 0 0 0 0 0 0 0 0 0 0 0 0 -0 -0 -0 0 0 0 0 0 0 0 -0 0 0 -0 -0 -0 -0 0 -0 -0 -0 nan
nan -0 -0 -0 -0 -0 -0 0 -0 -0 -0 -0 0 0 0 0 0 0 0 0 0 -0 0 0 0 -0 -0 -0 0 0 0 0 0 0 0 0 0 -0 -0 -0 -0 -0 0 0 -1 -0 nan
nan -0 -0 -0 -0 -0 -0 -0 -0 -0 -0 -0 0 0 0 0 0 0 -0 0 0 0 0 0 0 -0 -0 -0 0 0 0 0 0 0 0 0 0 -0 -0 -0 0 -0 -0 0 -0 -0 nan
nan -0 -0 -0 -0 -0 -0 -0 -0 -0 -0 -0 -0 -0 -0 -0 0 -0 -0 -0 -0 0 -0 -0 -0 -0 0 0 0 0 0 0 0 0 0 0 -0 -0 -0 -0 -0 -0 0 -0 -1 -0 nan
nan -1 -1 -0 -0 -0 -0 -0 -0 -0 -0 -0 -0 -0 -0 -0 -0 -0 -0 -0 -0 0 -1 -1 0 0 -0 0 0 0 0 0 0 0 -0 -0 -0 -1 -0 -0 0 0 0 -0 -0 -0 nan
nan -1 -1 -1 -1 -0 -0 -0 -0 -0 -0 -0 -0 -0 -0 -0 -0 -0 -0 -0 0 -0 -0 -1 -0 -0 0 0 0 0 0 0 0 0 0 -0 -0 -0 -0 -0 0 0 -0 -0 -0 -0 nan
nan -0 -0 -1 -1 -1 -1 -1 -0 -0 -0 -0 -0 -0 -1 -0 -0 -0 0 0 0 0 0 -1 -0 -0 0 0 0 0 0 0 0 0 0 -0 -0 0 0 0 0 -0 -0 -0 0 -0 nan
nan 0 -0 -0 -1 -1 -1 -1 -1 -1 -1 -0 -0 0 0 -0 -0 -0 0 0 0 -0 0 -0 0 0 0 0 0 0 0 0 0 0 -0 -0 -0 0 0 -0 -0 -0 -0 0 0 0 nan
nan -0 -0 -0 -1 -1 -1 -1 -1 -1 -1 -1 -1 -0 0 0 -0 0 0 0 -0 -0 -1 -0 0 0 0 0 0 0 0 0 0 0 0 -0 -0 0 -0 -0 -0 0 -0 -0 -0 -0 nan
nan -1 -1 -1 -1 -1 -1 -1 -1 -1 -1 -1 -1 -1 -0 0 0 0 0 0 -0 0 -0 -0 0 -0 -0 0 0 -0 0 0 0 0 0 -0 -0 -0 -0 0 -0 -0 -0 -0 0 0 nan
nan -0 -1 -1 -1 -1 -1 -1 -1 -1 -1 -1 -0 -0 -0 0 0 0 0 -0 -0 -0 -0 -0 -0 -0 0 -0 0 -0 0 0 -0 0 0 0 -0 -0 0 -0 0 0 -0 -0 -0 0 nan
nan -1 -1 -1 -1 -0 -1 -1 -1 -1 -1 -1 -0 -0 -0 -0 0 0 0 -0 -1 -0 -0 -0 0 0 -0 0 0 0 0 -0 -0 0 -0 -0 -0 -0 -0 0 -0 -0 -0 -0 0 -0 nan
nan -2 -2 -2 -1 -1 -0 -1 -1 -0 -0 -1 -0 -0 -0 -0 0 -0 -0 -0 -0 0 -0 -0 -0 0 -0 -0 -0 0 0 -0 0 -0 -0 0 -0 -0 -0 0 0 0 -0 -0 -0 -0 nan
nan -1 -1 -2 -2 -1 -1 -1 -1 -1 -0 -0 -0 -0 -0 0 0 0 0 -0 -0 -0 -0 -0 -0 -0 0 0 0 -0 -0 -0 0 -0 0 0 0 -0 0 0 0 -0 0 0 -0 -0 nan
nan -0 -0 -0 -1 -1 -1 -1 -1 -1 -2 -1 -1 -0 0 -0 -0 -0 0 -0 -1 -1 -1 -0 -0 0 -0 -0 0 0 -0 -0 0 -0 0 0 0 -0 -1 -0 -0 -0 -0 -0 0 0 nan
nan -0 -0 -0 -0 -2 -1 -1 -1 -1 -1 -2 -0 -0 -0 -0 -0 -0 -1 -0 -0 -0 -1 -1 -0 -0 -1 -0 -0 -0 -0 -0 -0 0 0 -0 0 -0 -1 0 -0 -0 -0 -0 -0 0 nan
nan -0 -0 -0 -0 -1 -1 -1 -1 -1 -1 -1 -0 -0 -1 -1 -1 -0 -0 -0 -0 -1 -0 -1 -0 -1 -1 -1 -0 -0 -1 -0 -1 -1 -0 0 0 -0 0 -0 -0 0 0 0 0 -0 nan
nan -0 0 0 -0 -0 -1 -2 -3 -2 -1 -0 -1 -0 -1 -0 -0 -0 -0 -0 -0 -1 -1 -1 -0 -1 -0 -0 -1 -0 -0 -1 -1 -1 -0 -0 0 0 -0 -0 -0 -0 -0 0 -0 -1 nan
nan 0 0 0 0 0 -0 -1 -1 -2 -1 -2 -1 -0 -0 -0 -0 -0 -0 -0 -0 -0 -0 -0 -0 -1 -1 -0 -0 -0 -1 -0 -0 -0 -1 -0 -0 -0 -0 -0 0 -0 -0 -0 -0 1 nan
nan 0 -0 -0 0 0 0 0 -0 -0 -2 -1 -0 -0 -0 -0 -0 -0 -0 -0 -0 -0 -0 -0 -0 -0 -0 -0 -0 -0 -1 -1 -1 -0 -0 -0 -0 -0 -1 0 -0 -0 -1 -1 0 -0 nan
nan -0 -0 -0 -0 -0 0 0 -0 -0 -1 -0 -0 -0 -0 -0 -0 -0 -0 -0 -0 -0 -0 -1 0 -0 -0 -0 -1 -0 -0 -0 -0 -1 -1 -0 -0 -0 -0 -0 -1 -1 -0 0 0 0 nan
nan -0 -0 -0 -0 -0 -0 0 0 -0 -0 0 0 -0 -0 -0 -0 -0 -0 -0 -0 -0 -0 -1 -1 0 -1 -0 -0 -0 -0 -0 -0 -0 -0 -0 0 -0 -0 -1 -1 -1 -0 0 0 -1 nan
nan -0 -0 -0 -0 -0 -0 -0 0 0 0 0 0 0 0 -0 -0 0 0 0 0 -0 -0 -0 -0 -0 0 -0 0 0 -0 -0 -0 -0 0 0 -0 -0 0 0 -1 -0 -0 -0 -0 -1 nan
nan 0 -0 -0 -0 -0 -0 -0 -0 0 0 0 0 0 0 0 -0 -0 0 -0 -0 0 0 -0 -0 -0 -1 0 0 -0 -0 -0 -0 -0 -0 -0 -0 -0 -0 -1 -0 -0 -0 -0 0 -0 nan
nan 0 -0 -0 -0 -0 -0 -0 -0 -0 -0 0 -0 0 0 0 -0 -0 0 0 -0 -0 -0 -0 -0 -0 0 -0 -0 0 0 -0 -0 -0 -0 -0 -0 -1 -0 -0 2 -2 -0 -0 -1 -2 nan
nan nan nan nan nan nan nan nan nan nan nan nan nan nan nan nan nan nan nan nan nan nan nan nan nan nan nan nan nan nan nan nan nan nan nan nan nan nan nan nan nan nan nan nan nan nan nan
Wind_Speed
10 10 10 10 11 11 12 13 14 15 17 19 16 12 13 12 13 13 12 13 14 16 17 17 16 15 14 9 5 9 10 9 7 5 4 5 4 4 3 4 8 5 5 12 19 18 18
8 8 9 10 10 11 12 12 13 15 16 17 18 16 14 15 15 13 13 13 12 12 14 15 15 14 12 4 5 8 9 7 6 4 3 4 3 5 5 5 1 6 16 18 18 22 15
7 8 8 9 9 9 10 11 12 13 15 16 18 18 17 16 17 14 13 13 14 13 12 13 12 11 12 10 6 7 8 6 5 4 5 5 4 3 4 5 5 12 7 9 8 6 5
7 7 8 8 9 10 10 11 12 13 14 16 17 19 19 18 16 13 15 16 15 14 11 10 9 8 6 7 8 7 8 6 5 3 4 6 6 8 3 6 7 4 2 6 5 3 5
7 8 8 9 10 10 10 10 12 13 13 15 16 18 20 20 17 14 16 17 14 10 8 5 5 5 5 5 7 6 7 6 7 5 6 7 7 4 3 2 3 4 4 7 8 5 4
8 8 9 9 10 11 12 12 12 13 14 15 16 17 19 20 16 16 16 18 12 9 4 3 6 4 6 3 8 7 8 6 5 6 5 3 3 2 3 2 2 4 4 4 7 6 4
11 10 9 10 12 12 13 14 14 14 15 16 17 17 18 20 18 18 16 12 9 4 8 8 4 8 10 6 10 9 5 4 4 2 1 2 2 6 8 7 5 3 4 7 13 15 6
10 11 13 13 14 15 15 15 16 17 18 18 18 19 19 20 18 16 17 9 7 8 11 11 14 19 17 15 6 7 7 3 2 3 1 3 6 7 4 5 6 5 6 9 10 6 4
15 14 15 15 16 17 18 18 18 18 19 19 19 20 18 18 16 14 15 12 11 10 4 6 5 6 5 6 5 4 7 3 5 3 5 6 5 0 4 4 5 5 4 6 7 7 5
17 18 19 19 20 20 21 22 22 22 22 21 22 21 20 17 11 15 10 13 12 9 4 4 3 2 3 3 4 5 7 3 2 4 3 6 4 5 4 6 5 4 4 5 6 6 3
19 21 21 22 21 22 23 24 24 24 24 25 22 22 20 18 15 13 10 10 8 4 4 2 3 3 3 5 5 4 8 5 5 4 4 7 3 5 5 6 6 7 2 4 3 3 4
19 20 20 20 21 22 22 23 24 24 24 24 22 21 23 16 15 11 8 7 2 5 6 3 3 2 2 4 3 4 5 7 3 3 4 8 4 4 7 3 6 3 3 3 2 2 2
17 18 18 19 20 21 21 23 24 23 24 26 24 21 20 15 8 6 6 2 5 4 1 4 5 3 3 3 3 5 4 4 4 2 3 4 3 3 3 2 1 2 4 4 5 4 5
16 17 18 19 20 21 22 22 23 24 24 25 21 19 14 10 9 5 3 3 3 6 6 3 1 0 4 3 4 2 2 4 5 3 1 1 6 5 3 5 2 4 4 4 4 3 5
15 16 17 19 20 21 22 24 25 24 23 24 19 9 3 3 0 5 5 2 7 5 4 5 2 0 3 1 2 1 5 4 6 9 7 4 5 1 4 3 5 2 3 2 1 1 2
15 16 18 19 20 21 22 25 26 26 24 22 16 4 9 4 2 6 3 5 4 3 6 4 2 2 2 3 3 1 3 3 3 8 2 3 4 2 2 2 1 5 4 1 2 3 5
14 18 19 21 22 24 25 26 27 28 26 23 6 3 8 4 2 2 3 5 5 8 13 4 2 5 5 5 6 4 5 5 1 1 1 3 3 4 1 6 7 3 2 3 2 4 3
15 17 19 21 24 25 26 27 27 27 26 21 5 3 10 5 1 2 1 5 9 9 11 5 2 3 3 3 4 4 6 5 1 7 5 3 4 4 10 1 4 4 6 6 4 3 3
13 15 18 21 23 25 25 26 26 25 25 22 4 4 9 6 3 3 7 5 4 8 7 7 5 5 7 4 5 3 4 7 8 2 3 3 2 3 8 3 1 3 5 5 1 3 8
13 15 17 20 22 24 24 26 26 25 21 14 7 5 6 11 10 4 5 4 6 12 3 10 7 9 7 6 5 6 7 5 22 9 8 2 3 7 7 7 1 4 4 4 5 2 6
13 14 16 19 21 23 25 27 29 28 25 10 9 6 7 4 6 8 5 5 6 8 13 18 2 15 10 5 8 5 6 10 13 12 3 1 6 5 8 13 8 13 17 15 12 20 9
10 12 14 16 19 21 23 24 26 28 26 23 7 8 10 8 11 7 5 5 5 7 5 10 6 14 11 8 11 19 17 7 8 7 7 5 5 4 9 9 10 16 16 18 17 19 13
12 13 15 17 16 18 24 21 22 24 26 13 16 11 3 6 6 4 3 4 6 16 8 6 18 15 7 12 19 28 30 30 28 21 19 12 5 3 16 5 8 17 15 19 9 7 9
10 9 12 13 18 16 20 20 19 17 18 15 13 9 4 3 3 4 11 16 13 12 11 23 24 7 11 31 32 32 33 36 33 28 31 19 14 5 12 4 17 10 5 6 12 13 11
12 13 13 13 15 15 15 19 17 15 14 14 13 8 4 3 5 15 9 6 13 22 21 21 27 15 21 23 11 9 5 6 8 20 22 23 15 8 8 13 18 24 19 8 7 15 7
13 13 15 15 15 16 18 14 18 16 12 13 14 12 9 6 4 11 13 19 6 3 5 9 10 25 31 10 4 5 5 6 6 10 7 6 15 12 13 13 11 4 5 12 6 17 8
13 16 15 15 16 16 17 16 15 16 16 14 17 16 17 11 14 6 6 4 11 13 7 12 9 7 15 7 9 11 13 5 8 6 4 5 4 13 16 14 13 5 3 2 4 6 26
17 16 17 18 18 19 19 18 18 17 16 15 19 20 20 20 26 34 32 24 16 16 9 18 16 8 4 4 5 5 4 3 7 5 6 7 6 9 8 10 21 21 4 4 11 23 23
16 16 17 18 21 20 20 19 18 18 18 19 24 23 24 27 33 37 38 39 38 45 37 23 16 24 10 3 3 3 9 7 15 18 14 10 8 3 4 4 21 21 13 26 17 20 27
Wind_Direction
54 51 49 45 42 37 32 27 22 19 17 16 15 12 4 356 342 326 313 300 286 282 286 289 296 308 321 311 269 334 352 358 353 343 353 360 359 336 292 307 313 243 264 279 279 283 282
47 42 40 38 35 32 27 24 19 17 15 16 12 7 357 352 347 337 325 316 304 294 288 286 288 293 302 272 278 329 345 356 357 339 342 349 337 332 285 275 257 304 295 287 285 270 269
44 36 34 34 31 26 21 17 14 13 12 11 11 6 1 351 349 345 338 327 315 305 294 286 283 284 285 278 281 316 329 339 350 2 335 331 316 321 299 287 290 281 297 299 268 267 254
39 33 25 19 14 12 8 6 4 5 6 6 7 5 360 353 349 348 340 331 319 307 296 277 270 267 254 262 275 302 308 313 311 305 337 337 318 300 243 296 311 328 339 337 292 306 269
25 17 9 3 357 354 353 352 356 358 358 360 2 1 359 356 351 346 341 334 326 316 304 271 246 245 266 251 274 291 306 294 308 284 297 290 302 292 305 13 344 28 327 312 308 307 274
14 7 0 352 344 341 343 345 346 348 350 351 353 355 356 354 350 349 345 340 326 311 289 267 244 266 239 275 294 294 299 264 299 289 302 241 276 345 337 77 258 265 305 258 260 287 315
17 6 348 340 340 341 344 341 337 338 339 338 339 343 347 350 346 351 351 353 345 297 282 238 252 264 288 283 294 285 249 251 277 282 255 235 344 249 258 225 218 249 256 264 277 281 285
8 347 346 345 339 336 334 332 330 331 332 330 329 332 337 342 342 343 347 9 354 307 305 270 252 255 265 274 281 265 232 218 193 239 166 356 242 246 263 251 241 234 278 285 283 275 312
341 347 341 335 330 328 326 324 323 322 320 320 320 320 326 332 332 333 343 350 345 337 280 283 236 255 259 236 251 249 202 200 211 242 201 194 241 99 188 263 260 261 226 268 264 325 280
343 337 337 335 331 328 323 320 319 318 315 314 314 314 316 320 317 325 328 335 337 335 46 258 239 239 211 224 270 226 208 228 239 244 249 233 264 201 236 260 190 285 217 242 286 0 303
333 335 335 334 332 329 327 323 320 320 315 311 310 306 304 307 302 307 311 323 329 341 12 251 198 205 217 213 304 214 200 200 227 227 83 258 229 224 239 228 171 235 249 261 255 238 345
331 332 333 334 333 330 329 326 324 321 316 310 310 307 300 298 291 288 294 313 329 40 255 298 186 218 205 208 242 176 195 220 253 266 220 248 279 214 214 234 209 326 324 352 48 104 356
335 337 337 339 339 338 336 336 331 328 321 312 313 306 296 296 274 271 289 283 29 146 300 236 231 177 222 236 254 183 191 200 201 355 326 309 231 266 186 280 99 95 44 339 349 5 233
340 343 344 344 344 343 341 340 333 331 327 316 322 313 300 284 254 248 203 55 177 240 239 351 92 188 233 166 248 228 263 275 225 148 300 81 326 193 176 199 210 187 159 155 250 265 278
347 349 348 349 348 346 346 344 339 336 336 326 329 321 0 353 180 196 180 105 216 227 314 331 323 274 289 292 214 320 227 237 215 179 176 169 266 242 206 172 144 146 194 202 234 38 21
0 359 358 354 352 349 350 350 345 341 345 339 338 73 37 39 103 152 89 248 269 336 332 355 276 156 305 332 339 269 258 219 256 189 212 205 293 203 273 172 211 168 156 47 11 294 283
9 6 7 4 2 1 358 357 349 343 349 348 344 85 30 34 124 156 171 253 318 341 360 340 307 301 249 276 207 230 262 281 211 115 157 152 147 280 169 199 186 126 228 185 173 173 231
13 10 7 6 4 4 2 4 357 350 350 358 29 51 18 351 51 46 19 317 320 331 356 312 309 281 254 294 291 262 241 252 252 161 187 215 168 263 238 223 156 168 203 165 146 236 244
14 11 9 7 4 3 3 6 4 2 358 358 26 343 14 11 57 15 329 315 319 12 4 348 319 2 2 315 312 257 305 3 4 264 199 188 239 326 328 37 75 204 201 199 120 110 215
11 13 8 6 2 3 5 3 8 8 8 6 9 1 9 54 55 25 350 303 337 352 90 352 360 42 357 347 338 301 326 349 337 320 317 216 216 202 229 251 319 263 225 202 189 204 283
7 6 10 4 4 1 4 6 5 9 16 15 32 35 16 351 354 340 320 324 344 8 357 8 60 33 4 305 314 330 0 330 324 313 313 343 239 217 254 259 268 266 273 264 225 250 222
357 3 2 357 359 355 1 5 9 6 18 40 48 3 350 317 330 352 347 17 23 4 343 321 14 340 329 295 291 302 310 328 268 314 357 343 281 291 275 277 249 259 255 262 250 252 248
350 351 353 346 347 350 352 0 6 9 10 48 29 6 327 317 341 345 351 17 331 345 302 311 335 325 320 291 315 299 283 272 258 266 272 283 267 269 275 256 310 279 221 241 235 204 211
325 319 331 340 334 344 342 351 354 7 9 19 15 16 360 296 335 302 317 307 304 310 288 294 299 267 288 311 309 297 276 256 246 246 232 236 239 253 275 298 267 255 207 247 247 251 215
332 322 330 329 324 336 331 335 346 352 357 353 356 3 326 281 271 291 293 299 318 302 286 283 285 288 320 318 311 307 294 274 256 239 229 222 218 242 246 245 271 285 290 270 194 279 253
319 324 313 321 327 318 322 330 331 339 339 329 328 325 311 294 242 248 310 291 281 274 279 293 299 303 315 301 272 265 280 347 300 324 49 203 234 230 232 241 253 230 331 283 136 272 280
310 311 317 314 310 309 312 312 312 315 319 313 307 309 305 269 281 262 224 265 296 285 273 289 273 313 300 265 263 263 262 235 266 255 282 323 282 234 242 248 257 264 285 74 192 326 341
301 307 310 313 313 311 308 307 307 305 302 302 295 296 294 282 281 277 274 265 258 251 263 280 305 278 251 233 262 243 261 265 290 287 325 297 303 269 242 249 239 5 38 350 326 331 346
308 306 307 307 305 307 306 307 312 310 307 299 292 296 292 281 271 278 273 270 263 274 270 270 259 270 249 271 229 259 276 288 276 276 292 256 227 271 304 295 312 302 315 312 316 332 340
Height
1571 1570 1568 1567 1565 1563 1562 1560 1557 1555 1552 1549 1547 1544 1542 1539 1537 1534 1532 1530 1529 1528 1527 1526 1525 1524 1523 1522 1519 1517 1515 1512 1511 1510 1509 1508 1507 1506 1505 1503 1501 1498 1494 1491 1487 1485 1482
1572 1571 1569 1568 1566 1565 1563 1560 1558 1556 1553 1550 1548 1545 1542 1539 1536 1533 1530 1528 1526 1525 1524 1523 1522 1521 1521 1521 1516 1516 1514 1512 1511 1510 1508 1507 1506 1506 1505 1503 1502 1496 1494 1489 1484 1478 1478
1573 1572 1570 1569 1567 1565 1563 1561 1559 1556 1553 1551 1547 1545 1541 1538 1535 1532 1529 1527 1524 1523 1521 1521 1520 1519 1518 1517 1515 1515 1513 1512 1511 1510 1509 1507 1506 1505 1503 1501 1498 1494 1495 1486 1478 1475 1474
1574 1573 1571 1570 1568 1566 1564 1561 1559 1556 1554 1551 1547 1544 1541 1538 1534 1531 1528 1525 1522 1520 1518 1517 1517 1517 1514 1512 1512 1512 1512 1511 1510 1509 1509 1507 1506 1504 1502 1499 1495 1493 1493 1495 1476 1474 1470
1575 1573 1572 1570 1568 1566 1564 1561 1559 1556 1554 1551 1547 1544 1541 1537 1533 1531 1527 1523 1520 1518 1516 1516 1516 1516 1512 1510 1509 1509 1509 1509 1509 1508 1507 1507 1506 1504 1501 1500 1502 1499 1497 1499 1485 1473 1472
1576 1574 1572 1570 1568 1566 1564 1561 1559 1556 1553 1551 1547 1544 1540 1537 1532 1530 1526 1522 1519 1516 1516 1515 1515 1518 1512 1509 1508 1507 1507 1507 1508 1507 1507 1507 1506 1505 1504 1504 1514 1510 1493 1493 1492 1475 1472
1577 1574 1571 1569 1568 1566 1563 1561 1558 1555 1552 1550 1546 1543 1540 1536 1533 1529 1526 1521 1522 1519 1514 1512 1511 1508 1508 1507 1506 1504 1504 1505 1504 1506 1507 1507 1509 1508 1499 1499 1495 1496 1497 1495 1484 1475 1475
1577 1574 1572 1569 1567 1565 1562 1559 1556 1554 1551 1548 1545 1542 1539 1535 1532 1528 1525 1523 1522 1523 1513 1506 1506 1505 1505 1505 1505 1502 1504 1504 1503 1504 1504 1508 1508 1494 1494 1494 1494 1493 1494 1489 1478 1472 1473
1578 1575 1572 1568 1566 1563 1560 1557 1554 1552 1549 1545 1542 1539 1536 1533 1530 1528 1525 1523 1521 1519 1517 1504 1502 1502 1502 1503 1502 1500 1502 1501 1502 1502 1502 1505 1492 1491 1493 1492 1493 1491 1490 1487 1483 1474 1469
1577 1574 1571 1567 1565 1561 1558 1555 1552 1549 1545 1542 1539 1536 1533 1531 1530 1526 1524 1522 1520 1518 1526 1505 1501 1501 1500 1500 1501 1498 1499 1502 1501 1500 1497 1498 1488 1489 1491 1492 1490 1493 1481 1481 1480 1482 1492
1576 1573 1570 1567 1562 1559 1556 1552 1548 1545 1542 1538 1535 1532 1529 1527 1526 1525 1524 1521 1519 1520 1549 1503 1500 1498 1498 1500 1497 1496 1497 1498 1498 1496 1498 1493 1487 1488 1491 1487 1485 1484 1479 1479 1478 1482 1486
1575 1572 1569 1565 1561 1557 1553 1549 1545 1541 1537 1533 1530 1528 1524 1524 1522 1522 1520 1520 1520 1532 1532 1502 1497 1497 1497 1496 1495 1494 1495 1496 1495 1495 1493 1488 1485 1484 1482 1479 1481 1478 1479 1480 1482 1485 1499
1574 1571 1568 1564 1560 1556 1552 1548 1543 1538 1534 1529 1526 1523 1520 1520 1520 1519 1520 1521 1535 1538 1502 1497 1495 1496 1496 1495 1494 1492 1493 1495 1494 1497 1492 1486 1483 1478 1477 1480 1479 1480 1487 1500 1503 1506 1487
1573 1571 1567 1564 1560 1555 1551 1545 1540 1535 1530 1525 1522 1519 1516 1515 1516 1517 1519 1522 1532 1506 1501 1492 1493 1494 1497 1493 1492 1492 1492 1491 1487 1488 1495 1499 1487 1477 1474 1476 1477 1482 1485 1501 1499 1495 1486
1573 1570 1566 1562 1559 1554 1550 1544 1538 1533 1527 1521 1518 1515 1513 1513 1514 1516 1519 1536 1516 1507 1499 1497 1494 1496 1495 1492 1494 1491 1491 1486 1480 1484 1490 1493 1485 1472 1473 1472 1475 1481 1486 1480 1482 1490 1502
1573 1570 1567 1562 1559 1554 1550 1544 1537 1532 1527 1520 1516 1514 1515 1515 1513 1516 1521 1519 1508 1502 1500 1498 1498 1497 1497 1495 1497 1494 1488 1479 1476 1477 1478 1480 1488 1471 1470 1472 1472 1475 1477 1485 1496 1488 1475
1574 1571 1568 1564 1558 1554 1549 1544 1537 1530 1526 1520 1515 1516 1517 1515 1516 1516 1526 1521 1510 1506 1505 1504 1501 1500 1497 1496 1495 1493 1486 1478 1476 1479 1479 1481 1487 1475 1470 1471 1469 1477 1478 1478 1482 1486 1480
1574 1572 1569 1565 1560 1555 1550 1545 1539 1531 1525 1519 1517 1519 1519 1517 1519 1519 1520 1519 1515 1508 1507 1504 1502 1500 1498 1495 1494 1492 1488 1480 1477 1476 1480 1479 1486 1490 1469 1460 1461 1465 1468 1470 1481 1474 1481
1573 1572 1570 1566 1561 1557 1551 1546 1541 1534 1528 1522 1520 1520 1519 1517 1526 1524 1522 1519 1516 1513 1513 1509 1506 1504 1502 1499 1499 1492 1486 1482 1481 1479 1478 1478 1484 1496 1470 1466 1463 1462 1462 1463 1466 1472 1465
1575 1572 1570 1568 1564 1558 1553 1547 1543 1538 1533 1529 1529 1526 1521 1521 1529 1530 1529 1522 1519 1517 1516 1517 1515 1511 1511 1508 1500 1496 1492 1485 1485 1482 1480 1478 1481 1477 1478 1464 1463 1463 1460 1461 1463 1477 1450
1575 1573 1571 1568 1565 1561 1555 1550 1545 1540 1535 1534 1535 1539 1540 1536 1533 1536 1534 1528 1524 1528 1523 1521 1516 1525 1526 1518 1508 1503 1500 1497 1488 1482 1479 1480 1480 1480 1471 1465 1465 1461 1458 1454 1461 1445 1455
1575 1573 1571 1568 1566 1562 1557 1552 1548 1543 1539 1536 1544 1547 1543 1541 1539 1537 1534 1535 1532 1535 1535 1528 1528 1528 1527 1525 1520 1514 1510 1510 1500 1487 1486 1483 1481 1474 1466 1461 1461 1456 1451 1442 1438 1437 1437
1576 1574 1572 1570 1568 1564 1560 1556 1551 1548 1542 1541 1547 1549 1548 1545 1542 1540 1540 1539 1537 1537 1530 1530 1530 1527 1524 1520 1517 1513 1508 1503 1495 1490 1491 1489 1481 1476 1456 1457 1458 1441 1438 1425 1423 1423 1418
1574 1572 1571 1569 1567 1564 1561 1558 1555 1551 1548 1548 1548 1548 1549 1546 1544 1542 1540 1540 1538 1537 1535 1529 1527 1526 1521 1517 1508 1498 1489 1479 1475 1466 1473 1469 1472 1475 1457 1463 1455 1416 1412 1413 1411 1405 1406
1572 1570 1568 1567 1565 1562 1560 1558 1556 1553 1551 1549 1548 1549 1548 1546 1543 1540 1538 1537 1536 1533 1529 1527 1521 1521 1519 1513 1503 1489 1476 1467 1456 1449 1452 1455 1458 1460 1456 1446 1423 1415 1412 1412 1411 1392 1392
1570 1569 1567 1566 1564 1562 1558 1556 1555 1552 1551 1548 1548 1547 1547 1544 1539 1539 1538 1535 1534 1530 1526 1523 1520 1518 1516 1513 1507 1499 1488 1476 1469 1454 1448 1452 1454 1451 1441 1438 1429 1404 1398 1397 1404 1400 1387
1568 1566 1564 1562 1561 1560 1556 1554 1552 1550 1548 1547 1545 1544 1542 1537 1533 1533 1533 1532 1531 1529 1524 1521 1518 1516 1516 1509 1503 1498 1489 1483 1474 1460 1453 1456 1454 1446 1438 1428 1413 1407 1401 1402 1411 1406 1391
1562 1561 1560 1559 1557 1556 1553 1550 1548 1546 1545 1544 1541 1539 1539 1531 1525 1524 1524 1525 1523 1523 1519 1517 1515 1508 1505 1505 1497 1487 1481 1476 1473 1469 1468 1470 1461 1444 1431 1424 1412 1412 1403 1410 1413 1402 1400
1559 1557 1556 1554 1553 1551 1549 1546 1544 1542 1540 1539 1535 1534 1531 1527 1517 1515 1514 1514 1512 1510 1513 1512 1511 1507 1503 1499 1495 1491 1481 1477 1472 1463 1458 1459 1452 1449 1445 1419 1415 1419 1424 1421 1415 1407 1399